Weather History for KFIG - September, 2013

Change the Weather History Date:

Friday, September 13, 2013

  Actual Average (KDUJ) Record (KDUJ)
Temperature  
Mean Temperature 56 °F 61 °F  
Max Temperature 64 °F 71 °F 84 °F (1962)
Min Temperature 50 °F 51 °F 34 °F (1964)
Degree Days  
Heating Degree Days 8 5  
Month to date heating degree days 45  
Since 1 July heating degree days 107  
Cooling Degree Days 0 1  
Month to date cooling degree days 20  
Year to date cooling degree days 351  
Growing Degree Days 6 (Base 50)    
Moisture  
Dew Point 50 °F    
Average Humidity 80    
Maximum Humidity 100    
Minimum Humidity 54    
Precipitation  
Precipitation 0.01 in 0.13 in 2.50 in (1971)
Month to date precipitation 1.66  
Sea Level Pressure  
Sea Level Pressure 29.88 in    
Wind  
Wind Speed 5 mph (NW)    
Max Wind Speed 14 mph    
Max Gust Speed 22 mph    
Visibility 9 miles    
Events Fog , Rain    
T = Trace of Precipitation, MM = Missing Value Source: NWS Daily Summary

Daily Weather History Graph

Daily Weather History Graph

Search for Another Location

Airport or City:

Trip Planner

Search our weather history database for the weather conditions in past years. The results will help you decide how hot, cold, wet, or windy it might be!

Date:

Astronomy

Sep. 13, 2013 Rise Set
Actual Time 6:52 AM EDT 7:25 PM EDT
Civil Twilight 6:24 AM EDT 7:53 PM EDT
Nautical Twilight 5:52 AM EDT 8:25 PM EDT
Astronomical Twilight 5:18 AM EDT 8:59 PM EDT
Moon 3:16 PM EDT (9/13) 12:17 AM EDT (9/13)
Length of Visible Light 13h 28m
Length of Day
12h 33m
First Quarter, 61% of the Moon is Illuminated
Sep 13
First Quarter
Sep 19
Full
Sep 26
Last Quarter
Oct 4
New
Oct 11
First Quarter

Hourly Weather History & Observations

Time (EDT) Temp. Dew Point Humidity Pressure Visibility Wind Dir Wind Speed Gust Speed Precip Events Conditions
12:28 AM 59.0 °F 57.2 °F 94% 29.83 in 1.0 mi Calm Calm - N/A   Mist
12:35 AM 57.2 °F 57.2 °F 100% 29.83 in 0.5 mi WNW 3.5 mph - N/A Fog Fog
12:39 AM 57.2 °F 57.2 °F 100% 29.83 in 2.0 mi WNW 5.8 mph - N/A   Partly Cloudy
12:46 AM 59.0 °F 57.2 °F 94% 29.83 in 10.0 mi WNW 4.6 mph - N/A   Partly Cloudy
12:54 AM 57.9 °F 57.0 °F 97% 29.81 in 10.0 mi Calm Calm - N/A   Partly Cloudy
1:54 AM 59.0 °F 57.0 °F 93% 29.82 in 10.0 mi WNW 5.8 mph - 0.01 in   Clear
2:54 AM 59.0 °F 55.9 °F 90% 29.82 in 10.0 mi Variable 3.5 mph - N/A   Overcast
3:54 AM 57.9 °F 55.9 °F 93% 29.80 in 10.0 mi WSW 5.8 mph - 0.00 in   Overcast
4:54 AM 57.0 °F 55.9 °F 96% 29.81 in 10.0 mi West 5.8 mph - 0.00 in Rain Light Rain
5:54 AM 55.9 °F 54.0 °F 93% 29.80 in 10.0 mi WNW 3.5 mph - 0.00 in   Clear
6:54 AM 55.9 °F 54.0 °F 93% 29.81 in 10.0 mi WNW 4.6 mph - N/A   Partly Cloudy
7:06 AM 55.4 °F 55.4 °F 100% 29.83 in 10.0 mi Calm Calm - N/A   Mostly Cloudy
7:54 AM 55.9 °F 55.0 °F 97% 29.83 in 10.0 mi SW 3.5 mph - N/A   Overcast
8:08 AM 55.4 °F 53.6 °F 94% 29.85 in 10.0 mi WNW 3.5 mph - N/A   Mostly Cloudy
8:16 AM 57.2 °F 53.6 °F 88% 29.85 in 10.0 mi WNW 6.9 mph - N/A   Overcast
8:26 AM 57.2 °F 53.6 °F 88% 29.85 in 10.0 mi NW 5.8 mph - N/A   Overcast
8:54 AM 57.9 °F 54.0 °F 87% 29.84 in 10.0 mi North 3.5 mph - N/A   Mostly Cloudy
9:31 AM 57.2 °F 53.6 °F 88% 29.86 in 10.0 mi NNW 5.8 mph - N/A   Mostly Cloudy
9:54 AM 59.0 °F 52.0 °F 78% 29.85 in 10.0 mi NNW 4.6 mph - N/A   Overcast
10:05 AM 59.0 °F 51.8 °F 77% 29.87 in 10.0 mi NW 6.9 mph - N/A   Overcast
10:54 AM 60.1 °F 52.0 °F 75% 29.87 in 10.0 mi NNW 4.6 mph - N/A   Mostly Cloudy
11:54 AM 61.0 °F 48.9 °F 64% 29.87 in 10.0 mi North 9.2 mph - N/A   Unknown
12:54 PM 63.0 °F 48.0 °F 58% 29.86 in 10.0 mi North 8.1 mph - N/A   Overcast
1:54 PM 62.1 °F 48.0 °F 60% 29.86 in 10.0 mi NNW 5.8 mph - N/A   Overcast
2:54 PM 63.0 °F 46.9 °F 56% 29.86 in 10.0 mi NW 11.5 mph 21.9 mph N/A   Overcast
3:54 PM 63.0 °F 46.0 °F 54% 29.86 in 10.0 mi NNW 6.9 mph 17.3 mph N/A   Mostly Cloudy
4:54 PM 63.0 °F 46.0 °F 54% 29.89 in 10.0 mi NNW 13.8 mph 20.7 mph N/A   Mostly Cloudy
5:54 PM 57.0 °F 43.0 °F 59% 29.92 in 10.0 mi NNW 11.5 mph 19.6 mph N/A   Mostly Cloudy
6:54 PM 54.0 °F 42.1 °F 64% 29.95 in 10.0 mi NNW 11.5 mph 20.7 mph N/A   Partly Cloudy
7:54 PM 52.0 °F 41.0 °F 66% 29.97 in 10.0 mi NNW 10.4 mph 21.9 mph N/A   Scattered Clouds
8:54 PM 50.0 °F 42.1 °F 74% 30.00 in 10.0 mi NNW 9.2 mph - N/A   Partly Cloudy
9:54 PM 51.1 °F 42.1 °F 71% 30.01 in 10.0 mi NNW 5.8 mph - N/A   Overcast
10:54 PM 50.0 °F 43.0 °F 77% 30.02 in 10.0 mi North 6.9 mph - N/A   Overcast
11:13 PM 50.0 °F 42.8 °F 76% 30.02 in 10.0 mi NNW 8.1 mph - N/A   Overcast
11:26 PM 50.0 °F 42.8 °F 76% 30.02 in 10.0 mi NNW 8.1 mph - N/A   Overcast
11:54 PM 50.0 °F 42.1 °F 74% 30.02 in 10.0 mi North 4.6 mph - N/A   Overcast